STARLINK-34761 (64954 NORAD) Tracking and Keplerian Element Data

This shows tracking and keplerian element data for the satellite.

Feedback or suggestion? Click here.




ElementValue
Catalog64954
NameSTARLINK-34761
Epoch Orbit2339
Epoch Day354.21730624
Epoch Year2025
RAAN215.6939
Inclination97.6034
Eccentricity0.0002324
Argument of Perigee81.531
Mean Anonmoly278.618
Mean Motion15.05653937
Decay Rate3.056E-05
L11 64954U 25158Y 25354.21730624 .00003056 00000+0 21592-3 0 9998
L22 64954 97.6034 215.6939 0002324 81.5310 278.6180 15.05653937 23396



Live tracking and technical data element details for STARLINK-34761 (NORAD 64954). STARLINK-34761 can be tracked NOW for your location showing map with azimuth and elevation plus other details from your city location.







IsCatalogInMostPopularTable: catalog: 64954, numindb: 3
Update: records affected: 1



GetName: 64954 STARLINK-34761

Hit Count: updated at: Tue, 10 Feb 2026 02:14:31 GMT